Wind_Speed
7 7 8 9 9 10 11 12 12 13 13 12 11 12 13 15 16 17 18 19 20 21 22 23 24 25 26 27 27 28 28 29 30 31 31 32 32 33 33 33 34 34 34
8 9 9 10 11 12 13 12 13 14 14 13 11 11 12 13 15 17 19 20 22 23 24 25 26 27 28 29 30 31 31 32 32 33 34 35 36 36 37 38 38 39 39
9 10 11 12 12 13 13 13 13 14 14 13 12 12 13 14 16 17 19 21 23 24 25 27 28 29 30 31 32 32 32 33 34 34 36 37 39 40 41 41 42 43 43
12 12 13 14 14 15 15 15 15 15 15 14 14 13 13 15 16 18 20 22 23 24 26 27 28 29 31 32 32 33 34 34 35 36 37 39 40 42 43 44 45 46 47
16 16 17 17 17 17 17 17 17 17 17 16 15 15 15 16 16 18 19 20 22 23 25 26 28 29 30 31 32 34 35 37 38 39 41 42 43 44 46 47 48 49 50
19 20 20 21 21 21 20 19 20 20 19 19 18 18 18 18 18 19 20 21 23 24 26 27 28 29 31 33 34 36 38 40 42 44 45 47 48 49 50 52 53 54 55
23 23 24 24 25 24 23 23 23 22 21 21 21 21 21 21 22 22 23 24 25 27 28 29 31 32 35 36 38 40 42 44 46 47 49 51 53 54 56 57 59 60 61
26 27 28 28 28 27 26 25 25 24 24 23 24 25 25 25 26 26 28 29 30 31 32 34 35 37 39 40 42 44 46 48 50 52 54 56 58 59 61 63 65 66 68
28 29 29 28 28 28 27 27 28 25 25 25 25 27 28 29 30 31 32 34 35 36 37 38 40 42 44 46 47 49 51 53 55 57 59 61 63 65 67 69 71 72 74
30 30 30 30 29 29 29 28 27 27 26 26 28 29 30 32 33 35 36 38 39 41 41 42 44 46 48 50 52 54 56 58 60 62 65 67 69 71 73 75 76 77 78
29 31 32 32 30 29 29 29 28 28 28 29 30 31 32 34 36 38 39 41 42 43 45 46 49 51 53 55 56 58 60 63 65 67 69 71 74 76 77 78 79 79 79
30 32 33 31 30 30 30 31 31 30 30 31 32 33 34 36 38 40 41 43 45 46 48 50 52 54 56 58 59 62 64 66 68 71 73 74 75 76 77 78 79 79 79
32 34 33 32 32 32 32 33 33 33 33 34 35 36 37 38 40 42 44 46 47 49 52 54 56 57 59 60 62 64 66 68 71 72 73 74 74 75 75 75 75 75 76
35 33 34 34 34 34 34 35 35 36 36 37 38 38 40 41 43 45 47 49 50 52 55 57 59 60 61 62 64 66 68 69 70 71 71 71 71 71 71 71 71 71 71
35 35 36 36 36 36 37 38 38 38 39 40 41 42 44 46 47 48 49 52 53 54 57 59 60 61 63 64 65 67 68 68 68 67 67 66 65 65 65 65 64 64 63
37 38 38 38 38 39 40 41 41 42 43 44 46 46 48 49 51 52 53 55 56 58 59 60 60 61 63 64 65 65 65 64 63 61 59 59 59 59 58 57 56 55 55
40 41 41 41 42 43 43 44 46 47 48 48 49 50 52 54 55 56 57 57 58 58 58 59 60 61 62 63 63 62 61 60 58 56 55 54 53 52 51 50 50 50 50
43 44 45 46 48 48 48 48 50 51 52 52 53 54 56 57 57 57 57 57 56 57 58 58 59 60 61 60 59 58 56 54 52 51 49 48 47 46 45 45 45 46 45
46 47 48 50 50 51 51 52 53 54 55 56 57 58 57 57 57 57 56 56 56 57 57 57 57 58 57 57 55 52 50 48 47 45 43 42 41 41 41 41 41 40 40
50 49 50 52 52 53 54 54 55 56 57 58 59 58 57 56 56 56 55 55 55 55 55 55 55 54 53 52 49 46 44 42 41 40 40 39 38 38 38 38 37 37 37
50 49 50 52 52 53 53 55 57 57 58 58 57 57 56 55 54 54 54 53 53 53 53 53 51 50 48 46 44 41 38 36 36 36 36 36 36 36 36 36 35 35 34
50 50 52 53 55 56 57 58 58 57 57 56 56 55 54 53 53 53 52 52 51 50 50 48 46 44 43 41 37 35 34 33 31 31 32 33 34 34 34 33 34 33 33
49 51 54 55 56 56 57 57 56 55 55 54 54 53 53 52 52 52 50 49 48 47 45 43 41 39 36 33 31 30 30 30 29 28 29 31 32 33 33 32 32 32 32
51 52 53 54 55 56 56 56 55 54 54 53 52 52 52 50 49 48 47 45 44 43 40 38 35 32 29 27 26 26 26 27 29 30 30 31 32 33 33 31 31 31 31
51 52 53 53 54 54 54 54 53 53 52 51 51 50 48 47 45 43 41 40 38 37 34 31 27 24 23 23 23 24 25 26 28 29 30 30 30 31 32 32 33 32 30
48 50 51 51 51 51 51 51 50 49 48 47 46 44 42 41 39 36 34 33 31 29 27 24 20 19 20 20 21 23 25 27 28 28 29 29 29 29 29 32 32 31 30
Wind_Direction
242 257 274 286 296 308 311 312 318 319 317 310 298 289 284 280 279 279 279 280 281 282 282 282 281 280 279 279 278 278 278 278 277 277 276 276 275 274 274 273 272 272 272
248 259 271 283 292 304 310 309 313 317 318 314 305 296 289 287 283 282 282 283 284 284 283 282 282 281 281 280 279 279 279 278 278 277 276 276 275 274 274 273 273 272 273
258 267 275 283 290 298 304 304 306 311 315 313 308 304 295 290 286 284 283 285 285 285 284 284 284 283 282 282 281 280 281 280 279 278 278 277 276 275 275 274 274 274 274
267 272 280 285 289 294 297 299 300 302 306 307 304 301 301 294 289 287 286 287 286 286 286 286 285 285 285 284 282 282 282 282 281 280 280 279 277 276 276 275 275 275 275
275 278 281 284 287 290 292 293 294 296 297 298 299 296 296 297 294 292 291 290 289 289 288 288 288 287 287 286 285 285 284 284 283 282 281 281 279 278 277 277 276 275 275
277 281 283 285 284 285 285 286 290 292 291 290 290 291 291 292 294 294 291 290 290 289 289 290 289 289 288 287 287 287 286 285 284 284 283 282 280 279 278 277 276 275 275
279 282 283 282 281 281 281 281 284 285 285 286 286 285 285 286 289 290 290 290 290 291 293 292 292 291 291 290 289 288 287 287 286 285 284 283 282 280 279 278 278 277 276
281 283 285 281 278 278 279 281 283 281 281 282 283 283 281 282 284 285 286 288 290 291 291 292 292 292 292 291 290 289 288 287 286 285 284 283 282 281 280 279 278 278 277
284 285 285 283 279 280 281 281 282 281 281 280 280 280 280 280 282 283 285 287 288 289 290 291 291 292 292 291 290 290 289 288 287 285 284 283 282 281 280 279 279 278 278
282 284 284 285 282 282 281 282 281 284 284 281 280 280 280 281 282 283 285 286 288 289 290 291 291 292 292 292 291 290 289 288 287 286 285 284 283 282 281 281 280 280 279
287 288 286 285 282 283 283 283 281 283 283 282 281 281 281 282 283 284 286 287 288 289 290 291 292 292 292 292 291 290 290 289 288 287 286 285 284 284 283 283 282 282 281
290 288 289 285 284 284 284 280 281 282 283 282 282 282 283 284 286 287 288 288 289 290 291 292 293 293 292 292 291 290 290 289 289 288 288 287 286 286 285 285 284 283 282
291 290 289 287 285 285 282 280 281 281 281 282 284 285 286 287 288 289 289 290 291 292 292 293 293 293 292 292 291 291 290 290 289 289 289 289 288 288 287 286 285 284 283
292 288 289 287 285 283 280 282 283 283 283 284 285 286 287 289 290 291 291 292 292 292 293 294 293 293 292 292 292 292 291 291 291 291 291 291 290 289 288 287 286 285 283
291 288 287 285 283 282 282 283 284 284 284 285 287 288 290 291 292 292 293 293 293 293 294 294 293 293 293 293 293 294 294 294 294 294 294 293 292 291 290 289 288 286 284
287 286 285 283 284 283 283 283 284 285 286 286 287 288 290 291 292 293 294 294 294 294 295 295 294 294 294 295 295 296 296 296 296 296 296 295 295 295 294 293 291 289 287
286 285 284 284 285 285 284 284 285 287 287 287 287 289 291 293 293 294 294 294 294 294 295 295 295 295 295 296 297 299 299 299 299 298 298 299 299 299 297 296 294 292 289
284 284 284 285 286 286 285 285 285 287 287 287 287 289 290 292 292 292 293 293 294 294 295 296 296 296 297 298 300 301 302 301 301 301 302 302 302 302 302 301 300 297 293
283 283 285 284 284 284 285 285 285 286 287 287 287 288 289 290 291 291 292 293 294 295 296 296 297 298 299 301 302 303 303 303 304 305 306 307 309 310 309 308 306 303 298
281 280 282 281 281 281 282 283 283 284 285 285 285 287 288 289 289 290 292 293 294 295 296 297 298 300 301 302 303 304 304 305 307 310 311 312 314 315 314 313 311 308 304
280 279 278 279 280 281 281 281 282 283 283 283 285 286 287 288 289 290 291 292 294 295 296 298 300 301 302 302 304 305 305 308 309 311 313 315 317 318 317 317 316 313 309
277 277 278 279 281 282 283 282 283 283 284 285 285 286 287 287 287 288 289 291 292 294 296 299 301 302 302 302 303 305 307 309 311 314 315 317 319 320 320 319 318 317 315
276 278 280 282 283 284 284 284 284 284 284 285 285 285 285 286 287 288 289 291 292 294 296 298 300 301 301 302 304 307 310 313 316 318 319 320 321 322 323 322 321 319 317
279 280 282 282 283 283 284 284 284 284 285 284 284 284 285 285 287 288 290 291 293 295 296 298 300 300 300 303 307 310 313 316 318 321 323 324 324 324 324 324 324 322 319
283 284 285 285 285 286 285 285 284 283 284 284 284 285 285 286 287 289 290 291 293 295 297 299 300 300 303 307 311 315 318 320 321 323 324 325 325 325 325 327 327 326 323
287 287 287 286 286 286 285 285 285 285 285 285 286 286 286 286 287 287 288 290 293 296 299 301 302 305 310 314 317 321 322 323 323 323 323 324 324 325 327 328 329 329 327
Height
5890 5890 5889 5888 5886 5885 5883 5882 5880 5878 5876 5875 5873 5873 5872 5871 5870 5870 5869 5869 5869 5868 5868 5868 5867 5867 5866 5865 5865 5864 5863 5862 5861 5861 5860 5859 5859 5858 5858 5857 5857 5857 5857
5888 5888 5887 5886 5884 5883 5882 5880 5878 5876 5874 5872 5871 5870 5869 5868 5867 5867 5866 5865 5865 5864 5863 5863 5862 5861 5860 5859 5859 5858 5857 5856 5855 5854 5853 5852 5851 5850 5850 5849 5849 5848 5848
5886 5886 5885 5883 5882 5880 5879 5877 5876 5874 5872 5870 5868 5867 5866 5865 5864 5863 5862 5861 5860 5859 5858 5857 5856 5855 5854 5853 5852 5851 5850 5849 5848 5847 5845 5844 5843 5842 5841 5840 5840 5839 5839
5883 5882 5881 5880 5879 5877 5876 5875 5873 5871 5869 5868 5866 5865 5863 5862 5861 5860 5858 5857 5856 5855 5853 5852 5851 5850 5848 5847 5845 5844 5843 5841 5840 5838 5837 5836 5834 5833 5832 5831 5830 5829 5828
5879 5878 5877 5876 5875 5873 5872 5871 5870 5868 5866 5865 5863 5862 5861 5859 5857 5856 5855 5854 5852 5850 5849 5847 5845 5844 5842 5840 5838 5837 5835 5833 5831 5830 5828 5827 5825 5824 5822 5820 5819 5818 5817
5873 5873 5872 5871 5870 5869 5867 5866 5865 5864 5862 5861 5859 5858 5857 5855 5853 5852 5850 5849 5847 5845 5843 5841 5840 5838 5836 5834 5831 5829 5827 5825 5823 5821 5819 5817 5815 5813 5811 5809 5807 5805 5804
5867 5866 5866 5864 5863 5862 5861 5861 5860 5858 5857 5856 5855 5853 5852 5850 5849 5847 5845 5843 5842 5840 5838 5835 5833 5831 5829 5826 5824 5821 5818 5816 5813 5810 5808 5805 5803 5800 5798 5796 5793 5791 5789
5861 5860 5859 5857 5856 5856 5855 5854 5853 5852 5851 5850 5849 5847 5846 5845 5843 5841 5839 5837 5835 5833 5831 5828 5826 5823 5820 5818 5815 5812 5809 5805 5802 5799 5796 5792 5789 5786 5784 5781 5778 5775 5772
5855 5853 5852 5850 5849 5849 5848 5848 5847 5845 5845 5844 5842 5841 5839 5838 5836 5834 5832 5830 5827 5825 5822 5820 5817 5814 5811 5808 5805 5801 5797 5794 5790 5786 5782 5779 5775 5771 5767 5764 5760 5757 5754
5847 5846 5845 5843 5843 5842 5841 5841 5840 5839 5838 5836 5835 5833 5832 5830 5828 5826 5824 5821 5819 5816 5813 5810 5807 5804 5800 5797 5793 5789 5785 5780 5776 5772 5767 5763 5758 5754 5749 5745 5741 5737 5733
5840 5839 5838 5837 5836 5835 5834 5833 5832 5831 5830 5829 5827 5825 5823 5821 5819 5817 5815 5812 5809 5806 5803 5800 5796 5792 5788 5784 5779 5775 5770 5765 5760 5755 5750 5745 5739 5734 5729 5724 5719 5715 5711
5832 5832 5830 5829 5828 5827 5827 5826 5824 5823 5822 5820 5819 5817 5815 5813 5810 5807 5805 5801 5798 5795 5792 5788 5784 5779 5775 5770 5765 5760 5755 5749 5744 5738 5732 5726 5719 5713 5708 5702 5697 5692 5688
5824 5823 5822 5821 5820 5819 5818 5817 5816 5815 5813 5811 5810 5808 5806 5803 5800 5797 5794 5791 5787 5784 5780 5776 5771 5766 5761 5755 5750 5744 5738 5732 5726 5719 5713 5706 5699 5693 5686 5680 5675 5669 5665
5815 5814 5814 5813 5812 5811 5810 5809 5807 5806 5804 5802 5800 5797 5795 5792 5789 5786 5783 5779 5775 5771 5766 5762 5756 5751 5745 5740 5734 5728 5721 5714 5707 5700 5693 5686 5679 5672 5666 5659 5653 5648 5643
5807 5807 5806 5805 5803 5802 5801 5799 5797 5795 5794 5791 5789 5786 5784 5781 5778 5774 5770 5767 5763 5758 5753 5747 5741 5735 5729 5723 5717 5710 5703 5695 5688 5681 5674 5666 5659 5652 5645 5639 5633 5628 5623
5799 5798 5796 5795 5793 5792 5790 5789 5787 5785 5783 5780 5777 5775 5772 5768 5765 5761 5757 5753 5749 5744 5739 5732 5726 5719 5712 5706 5699 5692 5685 5677 5670 5663 5655 5649 5641 5634 5628 5621 5615 5609 5604
5789 5788 5786 5784 5783 5781 5779 5777 5775 5773 5770 5768 5765 5762 5758 5755 5751 5747 5743 5739 5734 5729 5724 5717 5710 5704 5697 5690 5683 5675 5667 5660 5653 5646 5639 5632 5625 5619 5612 5605 5599 5593 5588
5778 5777 5775 5773 5771 5769 5767 5765 5762 5759 5757 5754 5751 5748 5744 5740 5737 5732 5728 5724 5719 5714 5709 5703 5696 5689 5682 5675 5668 5660 5652 5645 5639 5632 5626 5619 5612 5605 5598 5591 5585 5579 5573
5767 5765 5763 5761 5758 5756 5754 5751 5749 5746 5743 5740 5737 5733 5729 5726 5722 5718 5714 5709 5704 5699 5694 5689 5682 5675 5668 5661 5654 5647 5639 5633 5626 5620 5613 5606 5600 5593 5586 5579 5573 5566 5560
5755 5753 5750 5748 5745 5742 5739 5737 5734 5731 5728 5725 5722 5718 5714 5711 5707 5704 5699 5695 5690 5685 5680 5674 5668 5661 5654 5648 5642 5635 5629 5622 5616 5609 5602 5596 5590 5583 5576 5569 5563 5556 5550
5743 5740 5737 5735 5732 5729 5726 5723 5720 5717 5714 5710 5707 5703 5700 5696 5693 5689 5685 5681 5677 5672 5667 5661 5655 5649 5643 5637 5631 5625 5620 5614 5607 5601 5595 5587 5581 5575 5568 5561 5554 5547 5540
5729 5727 5723 5721 5718 5715 5712 5708 5705 5702 5699 5695 5692 5688 5685 5682 5679 5675 5672 5668 5664 5660 5655 5649 5644 5639 5633 5627 5622 5616 5611 5606 5601 5596 5588 5581 5574 5567 5560 5553 5546 5539 5532
5716 5713 5710 5707 5704 5700 5697 5694 5690 5687 5684 5681 5677 5674 5671 5668 5665 5662 5658 5655 5652 5648 5644 5640 5635 5629 5624 5619 5614 5609 5604 5598 5593 5588 5582 5575 5568 5561 5554 5547 5539 5532 5525
5702 5699 5695 5692 5688 5685 5681 5678 5675 5672 5669 5666 5663 5660 5657 5654 5652 5649 5646 5643 5640 5637 5634 5630 5626 5621 5617 5612 5607 5603 5598 5593 5586 5581 5575 5568 5561 5554 5547 5540 5533 5526 5518
5689 5685 5681 5677 5673 5670 5666 5662 5659 5656 5653 5651 5649 5646 5643 5641 5639 5637 5635 5632 5630 5627 5625 5621 5618 5614 5610 5606 5602 5597 5593 5588 5581 5575 5569 5563 5556 5549 5541 5534 5526 5519 5512
5675 5671 5667 5662 5658 5655 5651 5648 5644 5641 5639 5637 5634 5633 5631 5629 5628 5626 5625 5623 5621 5619 5617 5614 5611 5608 5605 5601 5597 5592 5587 5582 5576 5570 5564 5558 5551 5545 5538 5529 5521 5513 5505